Volver al catálogo

HULIANWANG DIGUI-28

ActivoComunicacionesPO
NORAD 63695·PAYLOAD·🇨🇳 China

Lanzado Apr 28, 2025 desde Wenchang Space Launch Site

Loading…

Próximos Pases (próximas 24 horas)

TLE

ActualizadoSource: Space-Track

Época: Sep 14, 2026, 22:04 UTC

1 63695U 25086J   26257.91951664  .00000038  00000-0  54162-4 0  9996
2 63695  86.4944 282.6751 0001903  81.0951 279.0399 13.24414355 66737

Sigue HULIANWANG DIGUI-28 en tiempo real con AllMySat

Download on the App Store